This is the latest recevied weather packets stored in our database for station/object K0APR. If no packets are shown the sender has not sent any weather packets the latest 10 day(s).
| Time | Temp. | Humidity | Pressure | Rain* | Wind** | Luminosity | Snow |
|---|---|---|---|---|---|---|---|
| 1788048719 | 26.67° C | 73% | 1008.4 hPa | 0 mm | - | 31 W/m² | - |
| 1788048417 | 26.67° C | 72% | 1008.1 hPa | 0 mm | - | 34 W/m² | - |
| 1788048116 | 27.22° C | 72% | 1008.4 hPa | 0 mm | - | 36 W/m² | - |
| 1788047814 | 27.22° C | 71% | 1008.4 hPa | 0 mm | - | 39 W/m² | - |
| 1788047514 | 27.22° C | 71% | 1008.4 hPa | 0 mm | - | 42 W/m² | - |
| 1788047209 | 27.22° C | 71% | 1008.4 hPa | 0 mm | - | 52 W/m² | - |
| 1788046904 | 27.78° C | 70% | 1008.8 hPa | 0 mm | - | 65 W/m² | - |
| 1788046603 | 27.78° C | 70% | 1008.4 hPa | 0 mm | - | 81 W/m² | - |
| 1788046298 | 27.78° C | 69% | 1008.8 hPa | 0 mm | - | 102 W/m² | - |
| 1788045995 | 27.78° C | 70% | 1008.4 hPa | 0 mm | - | 109 W/m² | - |
| 1788045691 | 28.33° C | 70% | 1008.4 hPa | 0 mm | - | 109 W/m² | - |
| 1788045391 | 28.33° C | 68% | 1008.4 hPa | 0 mm | - | 107 W/m² | - |
| 1788045086 | 28.89° C | 67% | 1008.4 hPa | 0 mm | - | 127 W/m² | - |
| 1788044786 | 28.89° C | 67% | 1008.1 hPa | 0 mm | - | 206 W/m² | - |
| 1788044481 | 28.89° C | 67% | 1008.4 hPa | 0 mm | - | 224 W/m² | - |
| 1788044181 | 29.44° C | 66% | 1008.1 hPa | 0 mm | - | 248 W/m² | - |
| 1788043877 | 28.89° C | 66% | 1008.1 hPa | 0 mm | - | 258 W/m² | - |
| 1788043577 | 28.89° C | 65% | 1008.1 hPa | 0 mm | - | 288 W/m² | - |
| 1788043272 | 28.89° C | 67% | 1008.1 hPa | 0 mm | - | 285 W/m² | - |
| 1788042967 | 28.89° C | 67% | 1007.7 hPa | 0 mm | - | 136 W/m² | - |
| 1788042662 | 28.33° C | 67% | 1007.7 hPa | 0 mm | - | 126 W/m² | - |
| 1788042361 | 28.89° C | 66% | 1007.7 hPa | 0 mm | - | 127 W/m² | - |
| 1788042056 | 28.89° C | 67% | 1007.4 hPa | 0 mm | - | 122 W/m² | - |
| 1788041751 | 28.89° C | 66% | 1008.1 hPa | 0 mm | - | 116 W/m² | - |
| 1788041447 | 28.89° C | 65% | 1008.1 hPa | 0 mm | - | 99 W/m² | - |
* Rain latest hour (hover to see other rain measurements)
** Current wind speed in m/s (hover to see current wind gust speed)